SIILIN Weather Reports


time (UTC)temp
F
wind
direction
speed
knots
gust
knots
rain 1hr
in
rain 24hr
in
rain mn
in
humidity
%
barometer
mb
20260506202724 42 290 6.1 7.8 0.00 0.00 0.00 41 1014.7
20260506200725 42 285 6.1 7.8 0.00 0.00 0.00 43 1014.6
20260506194724 43 287 6.1 7.8 0.00 0.00 0.00 42 1014.6
20260506192724 43 281 7.0 8.7 0.00 0.00 0.00 44 1014.6
20260506190724 44 268 7.0 8.7 0.00 0.00 0.00 44 1014.4
20260506184723 45 264 7.8 9.6 0.00 0.00 0.00 38 1014.3
20260506182725 45 257 8.7 9.6 0.00 0.00 0.00 44 1014.1
20260506180724 45 252 8.7 10.4 0.00 0.00 0.00 44 1013.9
20260506174724 46 247 9.6 11.3 0.00 0.00 0.00 36 1013.7
20260506172723 46 248 10.4 12.2 0.00 0.00 0.00 39 1013.6
20260506170723 46 270 8.7 11.3 0.00 0.00 0.00 44 1013.5
20260506164723 46 252 9.6 14.8 0.00 0.00 0.00 39 1013.3
20260506160723 46 256 11.3 15.6 0.00 0.00 0.00 30 1013.3
20260506154724 47 274 10.4 16.5 0.00 0.00 0.00 31 1013.4
20260506152723 46 275 12.2 17.4 0.00 0.00 0.00 34 1013.3
20260506150723 46 254 14.8 19.1 0.00 0.00 0.00 31 1013.2
20260506144722 46 271 11.3 15.6 0.00 0.00 0.00 32 1013.3
20260506142723 47 268 13.0 17.4 0.00 0.00 0.00 27 1013.2
20260506140722 47 273 13.0 20.0 0.00 0.00 0.00 24 1013.2
20260506134723 46 272 16.5 22.6 0.00 0.00 0.00 29 1013.1
20260506132722 47 267 11.3 16.5 0.00 0.00 0.00 28 1013.0
20260506130722 46 263 13.9 17.4 0.00 0.00 0.00 36 1012.8
20260506124722 47 284 14.8 20.9 0.00 0.00 0.00 28 1012.8
20260506122722 46 263 11.3 19.1 0.00 0.00 0.00 35 1012.7
20260506120722 46 247 15.6 21.7 0.00 0.00 0.00 29 1012.6
20260506114723 46 274 16.5 23.5 0.00 0.00 0.00 31 1012.5
20260506112723 46 263 15.6 22.6 0.00 0.00 0.00 36 1012.4
20260506110722 46 238 14.8 18.2 0.00 0.00 0.00 31 1012.3
20260506104724 46 256 13.9 25.2 0.00 0.00 0.00 33 1012.3
20260506102724 45 273 17.4 22.6 0.00 0.00 0.00 31 1012.2
20260506100724 45 250 14.8 22.6 0.00 0.00 0.00 31 1012.0
20260506094724 45 248 17.4 24.3 0.00 0.00 0.00 34 1011.7
20260506092723 44 263 17.4 21.7 0.00 0.00 0.00 37 1011.7
20260506090723 44 260 16.5 22.6 0.00 0.00 0.00 38 1011.6
20260506084724 44 242 13.9 19.1 0.00 0.00 0.00 40 1011.6
20260506082724 44 259 13.9 22.6 0.00 0.00 0.00 42 1011.5
20260506080723 43 272 14.8 21.7 0.00 0.00 0.00 41 1011.5
20260506072724 42 253 13.9 20.0 0.00 0.00 0.00 49 1011.2
20260506070723 42 261 16.5 20.9 0.00 0.00 0.00 43 1010.9
20260506060723 40 255 10.4 13.9 0.00 0.00 0.00 56 1010.8
20260506050723 38 249 7.8 9.6 0.00 0.00 0.00 70 1010.3
20260506044723 37 227 8.7 10.4 0.00 0.00 0.00 75 1010.2
20260506042723 37 227 7.8 9.6 0.00 0.00 0.00 78 1010.0
20260506040722 36 233 8.7 11.3 0.00 0.00 0.00 77 1009.8
20260506034723 36 233 9.6 12.2 0.00 0.00 0.00 78 1009.6
20260506032722 36 232 9.6 11.3 0.00 0.00 0.00 80 1009.3
20260506030723 35 232 9.6 12.2 0.00 0.00 0.00 81 1009.1
20260506024722 36 0.0 0.0 0.00 0.00 0.00 81 1008.9
20260506022722 36 0.0 0.0 0.00 0.00 0.00 82 1008.6
20260506020722 36 255 10.4 13.0 0.00 0.00 0.00 82 1008.4
20260506014722 36 248 10.4 14.8 0.00 0.00 0.00 82 1008.3
20260506012722 36 234 10.4 12.2 0.00 0.00 0.00 84 1008.3
20260506010722 36 235 10.4 12.2 0.00 0.00 0.00 84 1008.1
20260506004722 37 224 9.6 12.2 0.00 0.00 0.00 85 1007.7
20260506002722 37 231 10.4 13.9 0.00 0.00 0.00 82 1007.7
20260506000722 37 232 8.7 11.3 0.00 0.00 0.00 80 1007.6
20260505234722 37 232 7.8 10.4 0.00 0.00 0.00 80 1007.5
20260505232722 37 233 9.6 12.2 0.00 0.00 0.00 78 1007.5
20260505230722 37 227 7.8 10.4 0.00 0.00 0.00 75 1007.5
20260505224722 38 240 10.4 12.2 0.00 0.00 0.00 73 1007.4
20260505222721 38 253 11.3 13.0 0.00 0.00 0.00 73 1007.3
20260505220722 38 250 9.6 13.0 0.00 0.00 0.00 70 1007.3
20260505214722 38 248 12.2 13.9 0.00 0.00 0.00 68 1007.2
20260505212722 39 253 11.3 13.9 0.00 0.00 0.00 66 1007.1
20260505210721 39 257 12.2 14.8 0.00 0.00 0.00 67 1006.9
20260505204721 40 258 12.2 14.8 0.00 0.00 0.00 65 1006.7